Weather History for Truckee-Tahoe, CA

Change the Weather History Date:

Thursday, April 11, 2013

  Actual Average Record
Temperature  
Mean Temperature 44 °F -  
Max Temperature 57 °F 53 °F 75 °F (1988)
Min Temperature 32 °F 25 °F 10 °F (1953)
Degree Days  
Heating Degree Days 20    
Moisture  
Dew Point 32 °F    
Average Humidity 66    
Maximum Humidity 100    
Minimum Humidity 23    
Precipitation  
Precipitation 0.04 in - - ()
Sea Level Pressure  
Sea Level Pressure 30.07 in    
Wind  
Wind Speed 4 mph (NE)    
Max Wind Speed 13 mph    
Max Gust Speed -    
Visibility 10 miles    
Events Rain    
Averages and records for this station are not official NWS values.
T = Trace of Precipitation, MM = Missing Value Source: NWS Daily Summary

Daily Weather History Graph

Daily Weather History Graph

Search for Another Location

Airport:

Trip Planner

Search our weather history database for the weather conditions in past years. The results will help you decide how hot, cold, wet, or windy it might be!

Date:

Astronomy

Apr. 11, 2013 Rise Set
Actual Time 6:28 AM PDT 7:34 PM PDT
Civil Twilight 6:01 AM PDT 8:02 PM PDT
Nautical Twilight 5:28 AM PDT 8:35 PM PDT
Astronomical Twilight 4:54 AM PDT 9:09 PM PDT
Moon 7:04 AM PDT (4/11) 9:13 PM PDT (4/11)
Length of Visible Light 14h 00m
Length of Day
13h 05m
New Moon, 2% of the Moon is Illuminated
Apr 11
New Moon
Apr 18
First Quarter
Apr 25
Full
May 2
Last Quarter
May 9
New

Hourly Weather History & Observations

Time (PDT) Temp. Windchill Dew Point Humidity Pressure Visibility Wind Dir Wind Speed Gust Speed Precip Events Conditions
12:15 AM 46.4 °F 44.3 °F 32.0 °F 57% 30.12 in 10.0 mi NE 4.6 mph - N/A   Overcast
12:35 AM 46.4 °F 43.5 °F 33.8 °F 62% 30.12 in 10.0 mi NNW 5.8 mph - N/A   Mostly Cloudy
12:55 AM 48.2 °F - 33.8 °F 58% 30.12 in 10.0 mi Calm Calm - N/A   Mostly Cloudy
1:15 AM 44.6 °F 42.2 °F 33.8 °F 66% 30.11 in 10.0 mi SSE 4.6 mph - N/A   Mostly Cloudy
1:35 AM 44.6 °F 43.1 °F 33.8 °F 66% 30.11 in 10.0 mi North 3.5 mph - N/A   Overcast
1:55 AM 44.6 °F - 35.6 °F 71% 30.10 in 10.0 mi Calm Calm - N/A   Overcast
2:15 AM 44.6 °F - 35.6 °F 71% 30.09 in 10.0 mi Calm Calm - N/A   Overcast
2:35 AM 44.6 °F - 35.6 °F 71% 30.09 in 10.0 mi Calm Calm - N/A   Overcast
2:55 AM 39.2 °F 35.9 °F 33.8 °F 81% 30.08 in 10.0 mi South 4.6 mph - N/A   Mostly Cloudy
3:15 AM 42.8 °F - 35.6 °F 76% 30.08 in 10.0 mi Calm Calm - N/A   Overcast
3:35 AM 42.8 °F 37.0 °F 35.6 °F 76% 30.08 in 10.0 mi North 10.4 mph - N/A   Overcast
3:55 AM 42.8 °F 36.2 °F 37.4 °F 81% 30.08 in 6.0 mi NNE 12.7 mph - N/A Rain Light Rain
4:15 AM 41.0 °F 36.4 °F 37.4 °F 87% 30.10 in 5.0 mi North 6.9 mph - 0.02 in Rain Light Rain
4:35 AM 39.2 °F 35.0 °F 39.2 °F 100% 30.10 in 9.0 mi North 5.8 mph - 0.03 in Rain Light Rain
4:55 AM 39.2 °F 33.6 °F 37.4 °F 93% 30.10 in 5.0 mi ENE 8.1 mph - 0.04 in Rain Rain
5:15 AM 39.2 °F 37.0 °F 37.4 °F 93% 30.10 in 10.0 mi ENE 3.5 mph - N/A Rain Light Rain
5:35 AM 39.2 °F 35.9 °F 37.4 °F 93% 30.11 in 10.0 mi NE 4.6 mph - N/A   Overcast
5:55 AM 39.2 °F 37.0 °F 37.4 °F 93% 30.12 in 10.0 mi NNE 3.5 mph - N/A   Overcast
6:15 AM 39.2 °F 35.9 °F 37.4 °F 93% 30.12 in 10.0 mi NE 4.6 mph - N/A   Overcast
6:35 AM 39.2 °F 37.0 °F 37.4 °F 93% 30.12 in 10.0 mi North 3.5 mph - N/A   Overcast
6:55 AM 39.2 °F - 37.4 °F 93% 30.12 in 10.0 mi Calm Calm - N/A   Mostly Cloudy
7:50 AM 39.2 °F 35.0 °F 35.6 °F 87% 30.13 in 10.0 mi NNE 5.8 mph - N/A   Overcast
8:45 AM 39.2 °F 35.0 °F 35.6 °F 87% 30.12 in 10.0 mi NE 5.8 mph - N/A   Mostly Cloudy
9:45 AM 41.0 °F 36.4 °F 35.6 °F 81% 30.12 in 10.0 mi SE 6.9 mph - N/A   Mostly Cloudy
10:45 AM 42.8 °F - 33.8 °F 70% 30.13 in 10.0 mi Calm Calm - N/A   Scattered Clouds
11:45 AM 46.4 °F 45.2 °F 35.6 °F 66% 30.11 in 10.0 mi North 3.5 mph - N/A   Scattered Clouds
12:50 PM 50.0 °F - 32.0 °F 50% 30.07 in 10.0 mi NE 5.8 mph - N/A   Mostly Cloudy
1:45 PM 55.4 °F - 32.0 °F 41% 30.05 in 10.0 mi NE 8.1 mph - N/A   Mostly Cloudy
2:50 PM 57.2 °F - 26.6 °F 31% 30.03 in 10.0 mi ENE 3.5 mph - N/A   Scattered Clouds
3:50 PM 57.2 °F - 19.4 °F 23% 30.02 in 10.0 mi ENE 4.6 mph - N/A   Scattered Clouds
4:45 PM 57.2 °F - 19.4 °F 23% 29.99 in 10.0 mi NNE 9.2 mph - N/A   Scattered Clouds
5:55 PM 57.2 °F - 28.4 °F 33% 29.99 in 10.0 mi North 9.2 mph - N/A   Clear
6:15 PM 57.2 °F - 28.4 °F 33% 29.99 in 10.0 mi NNE 10.4 mph - N/A   Clear
6:35 PM 55.4 °F - 26.6 °F 33% 30.01 in 10.0 mi NNE 12.7 mph - N/A   Clear
6:55 PM 53.6 °F - 26.6 °F 35% 30.01 in 10.0 mi NE 9.2 mph - N/A   Clear
7:15 PM 51.8 °F - 24.8 °F 35% 30.01 in 10.0 mi North 8.1 mph - N/A   Clear
7:35 PM 50.0 °F - 24.8 °F 37% 30.00 in 10.0 mi ENE 3.5 mph - N/A   Clear
7:55 PM 48.2 °F - 26.6 °F 43% 30.01 in 10.0 mi NNE 3.5 mph - N/A   Clear
8:15 PM 46.4 °F - 30.2 °F 53% 30.01 in 10.0 mi Calm Calm - N/A   Clear
8:35 PM 46.4 °F 42.4 °F 24.8 °F 43% 30.03 in 10.0 mi NNW 8.1 mph - N/A   Clear
8:55 PM 41.0 °F 38.0 °F 28.4 °F 61% 30.03 in 10.0 mi ESE 4.6 mph - N/A   Clear
9:15 PM 41.0 °F 38.0 °F 32.0 °F 70% 30.04 in 10.0 mi SSE 4.6 mph - N/A   Clear
9:35 PM 37.4 °F - 30.2 °F 75% 30.05 in 10.0 mi Calm Calm - N/A   Clear
9:55 PM 35.6 °F - 28.4 °F 75% 30.05 in 10.0 mi Calm Calm - N/A   Clear
10:15 PM 35.6 °F 31.7 °F 28.4 °F 75% 30.06 in 10.0 mi SE 4.6 mph - N/A   Clear
10:35 PM 32.0 °F 27.5 °F 26.6 °F 80% 30.06 in 10.0 mi SSE 4.6 mph - N/A   Clear
10:55 PM 33.8 °F - 26.6 °F 75% 30.06 in 10.0 mi Calm Calm - N/A   Clear
11:15 PM 35.6 °F 32.8 °F 26.6 °F 70% 30.05 in 10.0 mi SSE 3.5 mph - N/A   Clear
11:35 PM 32.0 °F 27.5 °F 26.6 °F 80% 30.05 in 10.0 mi South 4.6 mph - N/A   Clear
11:55 PM 32.0 °F 25.6 °F 24.8 °F 75% 30.04 in 10.0 mi South 6.9 mph - N/A   Clear